Location: Il Ritiro
(43.4167°N, 13.1333°E)
Time: 08:09:19
(UTC+00:00)

Cosmos 1745 Rocket - Pass Details

Date: 05 July 2020
Orbit: 954 x 997 km, 83.0° (Epoch: 05 August)

Event Time Altitude Azimuth Distance (km) Brightness Sun altitude
Rises 19:37:31 0° 178° (S) 3,630 6.6 -7.6°
Reaches altitude 10° 19:40:00 10° 176° (S) 2,693 5.9 -7.9°
Maximum altitude 19:46:07 70° 94° (E) 1,029 4.0 -8.7°
Drops below altitude 10° 19:52:21 10° 12° (NNE) 2,741 6.8 -9.6°
Sets 19:54:54 0° 11° (N) 3,699 7.5 -9.9°
